ITY4576 LIPX-EGKK

Flight info

Callsign ITY4576
Flight time N/A
Altitude 36000
Route OTZOM7C OTZOM Y480 UPXUF L612 ADOSA DCT BORMI DCT RESIA DCT ELMUR DCT RIPUS DCT DITON DCT HOC DCT LUL DCT RLP DCT ROTSI DCT KOTUN DCT NINAL DCT KESAX DCT KUNAV KUNAV1G
Aircraft A20N/M-SDE2E3FGHIRWXY/LB1

Departure

Time 2026-05-06 16:25
Airport Verona Villafranca Valerio Catullo Airport (LIPX)

Arrival

Time N/A
Airport London Gatwick Airport (EGKK)
Time Latitude Longitude Altitude Speed Heading
2026-05-06 15:47 45.40380 10.90709 243 ft 0 kts 134°
2026-05-06 16:14 45.40387 10.90700 243 ft 4 kts 134°
2026-05-06 16:14 45.40423 10.90648 244 ft 0 kts 134°
2026-05-06 16:14 45.40436 10.90629 244 ft 10 kts 135°
2026-05-06 16:14 45.40469 10.90583 245 ft 3 kts 136°
2026-05-06 16:15 45.40486 10.90562 245 ft 3 kts 146°
2026-05-06 16:15 45.40505 10.90548 246 ft 3 kts 180°
2026-05-06 16:15 45.40521 10.90559 247 ft 0 kts 226°
2026-05-06 16:15 45.40520 10.90556 247 ft 0 kts 226°
2026-05-06 16:18 45.40517 10.90553 247 ft 0 kts 226°
2026-05-06 16:19 45.40503 10.90532 246 ft 7 kts 227°
2026-05-06 16:19 45.40443 10.90444 244 ft 18 kts 225°
2026-05-06 16:19 45.40348 10.90291 243 ft 22 kts 243°
2026-05-06 16:19 45.40334 10.90235 243 ft 0 kts 256°
2026-05-06 16:20 45.40331 10.90221 243 ft 5 kts 256°
2026-05-06 16:20 45.40310 10.90105 245 ft 17 kts 256°
2026-05-06 16:20 45.40279 10.89933 247 ft 20 kts 255°
2026-05-06 16:20 45.40198 10.89764 247 ft 22 kts 226°
2026-05-06 16:21 45.40087 10.89603 245 ft 25 kts 225°
2026-05-06 16:21 45.39958 10.89417 242 ft 29 kts 225°
2026-05-06 16:21 45.39787 10.89171 239 ft 41 kts 225°
2026-05-06 16:21 45.39568 10.88853 240 ft 47 kts 225°
2026-05-06 16:22 45.39339 10.88521 236 ft 48 kts 226°
2026-05-06 16:22 45.39106 10.88185 235 ft 47 kts 225°
2026-05-06 16:22 45.38890 10.87870 233 ft 41 kts 225°
2026-05-06 16:22 45.38785 10.87715 231 ft 4 kts 226°
2026-05-06 16:23 45.38764 10.87685 231 ft 0 kts 225°
2026-05-06 16:23 45.38755 10.87669 231 ft 2 kts 204°
2026-05-06 16:23 45.38752 10.87677 232 ft 0 kts 129°
2026-05-06 16:24 45.38753 10.87681 232 ft 0 kts 96°
2026-05-06 16:24 45.38757 10.87684 230 ft 1 kts 50°
2026-05-06 16:24 45.38782 10.87713 231 ft 8 kts 44°
2026-05-06 16:24 45.38786 10.87719 231 ft 0 kts 44°
2026-05-06 16:25 45.38862 10.87826 234 ft 49 kts 46°
2026-05-06 16:25 45.39269 10.88420 235 ft 115 kts 45°
2026-05-06 16:25 45.39945 10.89407 270 ft 162 kts 44°
2026-05-06 16:25 45.40785 10.90536 894 ft 171 kts 45°
2026-05-06 16:26 45.41634 10.91725 1809 ft 168 kts 48°
2026-05-06 16:26 45.42458 10.92979 2627 ft 183 kts 49°
2026-05-06 16:26 45.43268 10.94492 3126 ft 203 kts 69°
2026-05-06 16:26 45.43466 10.96550 3495 ft 223 kts 104°
2026-05-06 16:27 45.42781 10.98515 4129 ft 230 kts 137°
2026-05-06 16:27 45.41520 10.99933 4969 ft 232 kts 150°
2026-05-06 16:27 45.40143 11.01147 5911 ft 234 kts 153°
2026-05-06 16:27 45.38737 11.02360 6779 ft 239 kts 153°
2026-05-06 16:28 45.37321 11.03636 7684 ft 242 kts 152°
2026-05-06 16:28 45.35904 11.04965 8496 ft 247 kts 151°
2026-05-06 16:28 45.34414 11.06204 9148 ft 248 kts 164°
2026-05-06 16:28 45.32750 11.06594 9435 ft 240 kts 188°
2026-05-06 16:29 45.31198 11.05956 9503 ft 235 kts 212°
2026-05-06 16:29 45.29983 11.04453 9528 ft 232 kts 234°
2026-05-06 16:29 45.29312 11.02379 9523 ft 234 kts 256°
2026-05-06 16:29 45.29295 11.00060 9522 ft 240 kts 279°
2026-05-06 16:30 45.29982 10.97880 9503 ft 248 kts 303°
2026-05-06 16:30 45.30798 10.96728 9504 ft 255 kts 320°
2026-05-06 16:30 45.33074 10.95674 9507 ft 268 kts 358°
2026-05-06 16:30 45.34895 10.96323 9500 ft 276 kts 28°
2026-05-06 16:31 45.36466 10.97848 9501 ft 278 kts 35°
2026-05-06 16:31 45.38016 10.99474 9500 ft 276 kts 36°
2026-05-06 16:31 45.39560 11.01095 9499 ft 276 kts 35°
2026-05-06 16:31 45.41110 11.02707 9502 ft 276 kts 35°
2026-05-06 16:32 45.42668 11.04314 9500 ft 276 kts 34°
2026-05-06 16:32 45.44226 11.05914 9501 ft 276 kts 34°
2026-05-06 16:32 45.45786 11.07514 9502 ft 277 kts 34°
2026-05-06 16:32 45.47348 11.09118 9503 ft 277 kts 34°
2026-05-06 16:33 45.48907 11.10720 9501 ft 277 kts 34°
2026-05-06 16:33 45.50576 11.12060 9509 ft 273 kts 18°
2026-05-06 16:33 45.52401 11.12704 9510 ft 272 kts
2026-05-06 16:34 45.56458 11.13659 9510 ft 305 kts
2026-05-06 16:34 45.58516 11.13373 9520 ft 296 kts 337°
2026-05-06 16:34 45.60248 11.11915 9515 ft 286 kts 311°
2026-05-06 16:34 45.61415 11.09673 9529 ft 282 kts 298°
2026-05-06 16:35 45.62450 11.07278 9926 ft 284 kts 297°
2026-05-06 16:35 45.63695 11.04959 10359 ft 310 kts 314°
2026-05-06 16:35 45.65636 11.03322 10666 ft 341 kts 338°
2026-05-06 16:35 45.68039 11.02840 11350 ft 358 kts
2026-05-06 16:36 45.70491 11.03593 12195 ft 366 kts 17°
2026-05-06 16:36 45.72896 11.04872 12958 ft 371 kts 19°
2026-05-06 16:36 45.75339 11.06147 13721 ft 375 kts 17°
2026-05-06 16:36 45.77802 11.07269 14389 ft 381 kts 14°
2026-05-06 16:37 45.80367 11.08298 15081 ft 383 kts 12°
2026-05-06 16:37 45.82969 11.09267 15693 ft 390 kts 11°
2026-05-06 16:37 45.85624 11.10220 16350 ft 396 kts 11°
2026-05-06 16:37 45.88308 11.11176 17023 ft 400 kts 11°
2026-05-06 16:38 45.91028 11.12145 17714 ft 404 kts 11°
2026-05-06 16:38 45.93783 11.13131 18299 ft 411 kts 11°
2026-05-06 16:38 45.96568 11.14129 18935 ft 415 kts 11°
2026-05-06 16:38 45.99414 11.14729 19517 ft 412 kts 355°
2026-05-06 16:39 46.02221 11.14190 20127 ft 405 kts 338°
2026-05-06 16:39 46.04767 11.12569 20716 ft 397 kts 321°
2026-05-06 16:39 46.06842 11.10034 21266 ft 389 kts 304°
2026-05-06 16:39 46.08325 11.06833 21811 ft 382 kts 292°
2026-05-06 16:40 46.09456 11.03420 22343 ft 384 kts 289°
2026-05-06 16:40 46.10594 10.99918 22931 ft 388 kts 290°
2026-05-06 16:40 46.11816 10.96430 23501 ft 392 kts 292°
2026-05-06 16:40 46.13119 10.92958 23967 ft 395 kts 294°
2026-05-06 16:41 46.14469 10.89494 24397 ft 397 kts 294°
2026-05-06 16:41 46.15847 10.86023 24848 ft 400 kts 294°
2026-05-06 16:41 46.17237 10.82534 25344 ft 402 kts 294°
2026-05-06 16:41 46.18634 10.79021 25796 ft 405 kts 294°
2026-05-06 16:42 46.20037 10.75483 26250 ft 407 kts 294°
2026-05-06 16:42 46.21444 10.71927 26677 ft 410 kts 293°
2026-05-06 16:42 46.22860 10.68345 27124 ft 411 kts 293°
2026-05-06 16:42 46.24263 10.64791 27522 ft 414 kts 293°
2026-05-06 16:43 46.25688 10.61176 27931 ft 416 kts 293°
2026-05-06 16:43 46.27122 10.57530 28283 ft 419 kts 293°
2026-05-06 16:43 46.28565 10.53862 28692 ft 421 kts 293°
2026-05-06 16:43 46.30013 10.50173 29097 ft 423 kts 293°
2026-05-06 16:44 46.31467 10.46465 29468 ft 425 kts 293°
2026-05-06 16:44 46.32925 10.42739 29819 ft 427 kts 292°
2026-05-06 16:44 46.34393 10.38984 30166 ft 429 kts 292°
2026-05-06 16:44 46.35856 10.35236 30504 ft 431 kts 292°
2026-05-06 16:45 46.37342 10.31420 30742 ft 434 kts 292°
2026-05-06 16:45 46.38825 10.27613 31104 ft 435 kts 292°
2026-05-06 16:45 46.40291 10.23844 31494 ft 435 kts 292°
2026-05-06 16:45 46.41774 10.20032 31834 ft 435 kts 292°
2026-05-06 16:46 46.43254 10.16214 32213 ft 434 kts 292°
2026-05-06 16:46 46.44731 10.12399 32615 ft 434 kts 292°
2026-05-06 16:46 46.46206 10.08584 32995 ft 434 kts 292°
2026-05-06 16:46 46.47784 10.04831 33373 ft 438 kts 297°
2026-05-06 16:47 46.49665 10.01324 33692 ft 445 kts 304°
2026-05-06 16:47 46.51725 9.97971 33975 ft 445 kts 304°
2026-05-06 16:47 46.53775 9.94611 34231 ft 444 kts 304°
2026-05-06 16:47 46.55818 9.91248 34500 ft 444 kts 304°
2026-05-06 16:48 46.57832 9.87925 34763 ft 443 kts 304°
2026-05-06 16:48 46.59868 9.84560 35019 ft 443 kts 304°
2026-05-06 16:48 46.61902 9.81197 35269 ft 443 kts 304°
2026-05-06 16:48 46.63936 9.77832 35473 ft 443 kts 304°
2026-05-06 16:49 46.65970 9.74461 35674 ft 444 kts 304°
2026-05-06 16:49 46.68005 9.71083 35873 ft 443 kts 304°
2026-05-06 16:49 46.70033 9.67716 35902 ft 442 kts 304°
2026-05-06 16:50 46.74083 9.60976 35898 ft 442 kts 304°
2026-05-06 16:50 46.78107 9.54260 35889 ft 442 kts 304°
2026-05-06 16:51 46.82147 9.47505 35886 ft 442 kts 304°
2026-05-06 16:51 46.86190 9.40724 35875 ft 443 kts 304°
2026-05-06 16:52 46.90227 9.33939 35856 ft 442 kts 304°
2026-05-06 16:52 46.94220 9.27215 35854 ft 440 kts 304°
2026-05-06 16:53 46.98245 9.20415 35880 ft 444 kts 304°
2026-05-06 16:53 47.02284 9.13577 35896 ft 443 kts 304°
2026-05-06 16:54 47.06322 9.06722 35897 ft 444 kts 304°
2026-05-06 16:54 47.10357 8.99854 35890 ft 444 kts 305°
2026-05-06 16:55 47.14167 8.92833 35895 ft 440 kts 297°
2026-05-06 16:55 47.17083 8.84995 35900 ft 434 kts 288°
2026-05-06 16:56 47.19230 8.76740 35899 ft 432 kts 285°
2026-05-06 16:56 47.21353 8.68469 35896 ft 433 kts 285°
2026-05-06 16:57 47.23464 8.60164 35912 ft 434 kts 285°
2026-05-06 16:57 47.25565 8.51843 35912 ft 434 kts 285°
2026-05-06 16:58 47.27653 8.43552 35915 ft 435 kts 285°
2026-05-06 16:58 47.29758 8.35180 35898 ft 436 kts 285°
2026-05-06 16:59 47.31857 8.26785 35899 ft 437 kts 285°
2026-05-06 16:59 47.33947 8.18370 35902 ft 438 kts 285°
2026-05-06 17:00 47.36039 8.09918 35902 ft 439 kts 285°
2026-05-06 17:00 47.38126 8.01460 35902 ft 439 kts 285°
2026-05-06 17:01 47.40194 7.93044 35901 ft 440 kts 285°
2026-05-06 17:01 47.42275 7.84546 35891 ft 440 kts 285°
2026-05-06 17:02 47.44308 7.76212 35887 ft 441 kts 285°
2026-05-06 17:02 47.46370 7.67682 35890 ft 440 kts 284°
2026-05-06 17:03 47.47918 7.58960 35884 ft 439 kts 280°
2026-05-06 17:03 47.49379 7.50259 35891 ft 439 kts 280°
2026-05-06 17:04 47.50847 7.41481 35890 ft 440 kts 280°
2026-05-06 17:04 47.52303 7.32697 35878 ft 440 kts 280°
2026-05-06 17:05 47.53753 7.23903 35881 ft 440 kts 280°
2026-05-06 17:05 47.55186 7.15162 35879 ft 440 kts 280°
2026-05-06 17:06 47.56623 7.06354 35880 ft 440 kts 280°
2026-05-06 17:06 47.58052 6.97544 35880 ft 440 kts 280°
2026-05-06 17:07 47.59477 6.88718 35881 ft 441 kts 280°
2026-05-06 17:07 47.60885 6.79949 35883 ft 441 kts 280°
2026-05-06 17:08 47.62297 6.71103 35883 ft 441 kts 280°
2026-05-06 17:08 47.63702 6.62256 35886 ft 441 kts 280°
2026-05-06 17:09 47.65103 6.53390 35887 ft 442 kts 280°
2026-05-06 17:09 47.66498 6.44517 35886 ft 442 kts 280°
2026-05-06 17:10 47.67876 6.35695 35884 ft 442 kts 280°
2026-05-06 17:10 47.69389 6.26840 35884 ft 444 kts 284°
2026-05-06 17:11 47.71267 6.18092 35883 ft 445 kts 284°
2026-05-06 17:11 47.73136 6.09317 35886 ft 446 kts 284°
2026-05-06 17:12 47.74983 6.00583 35888 ft 446 kts 284°
2026-05-06 17:12 47.76833 5.91785 35887 ft 446 kts 284°
2026-05-06 17:13 47.78677 5.82980 35886 ft 446 kts 284°
2026-05-06 17:13 47.80515 5.74162 35887 ft 447 kts 284°
2026-05-06 17:14 47.82348 5.65329 35884 ft 447 kts 284°
2026-05-06 17:14 47.84163 5.56546 35885 ft 447 kts 284°
2026-05-06 17:15 47.85985 5.47691 35888 ft 448 kts 284°
2026-05-06 17:15 47.87803 5.38818 35890 ft 448 kts 284°
2026-05-06 17:16 47.89718 5.29972 35895 ft 451 kts 290°
2026-05-06 17:16 47.92743 5.21829 35894 ft 456 kts 304°
2026-05-06 17:17 47.96898 5.14638 35900 ft 458 kts 310°
2026-05-06 17:17 48.01175 5.07584 35903 ft 459 kts 310°
2026-05-06 17:18 48.05455 5.00495 35912 ft 459 kts 310°
2026-05-06 17:18 48.09704 4.93445 35910 ft 460 kts 310°
2026-05-06 17:19 48.13979 4.86336 35912 ft 460 kts 310°
2026-05-06 17:19 48.18256 4.79205 35900 ft 459 kts 310°
2026-05-06 17:20 48.22503 4.72105 35902 ft 457 kts 310°
2026-05-06 17:20 48.26719 4.65035 35900 ft 458 kts 310°
2026-05-06 17:21 48.30956 4.57912 35903 ft 457 kts 310°
2026-05-06 17:21 48.35190 4.50775 35902 ft 458 kts 310°
2026-05-06 17:22 48.39421 4.43624 35901 ft 458 kts 310°
2026-05-06 17:22 48.43630 4.36490 35917 ft 459 kts 310°
2026-05-06 17:23 48.47865 4.29292 35950 ft 457 kts 310°
2026-05-06 17:23 48.52017 4.22218 35903 ft 449 kts 310°
2026-05-06 17:24 48.56175 4.15112 35905 ft 452 kts 310°
2026-05-06 17:24 48.60325 4.08002 35907 ft 451 kts 310°
2026-05-06 17:25 48.64442 4.00929 35904 ft 451 kts 310°
2026-05-06 17:25 48.68582 3.93798 35907 ft 451 kts 310°
2026-05-06 17:26 48.72739 3.86688 35903 ft 451 kts 313°
2026-05-06 17:26 48.77226 3.80026 35901 ft 452 kts 314°
2026-05-06 17:27 48.81678 3.73403 35903 ft 451 kts 314°
2026-05-06 17:27 48.86158 3.66716 35905 ft 452 kts 314°
2026-05-06 17:28 48.90633 3.60019 35909 ft 452 kts 314°
2026-05-06 17:28 48.95107 3.53307 35911 ft 451 kts 314°
2026-05-06 17:29 48.99568 3.46595 35914 ft 451 kts 314°
2026-05-06 17:29 49.04000 3.39911 35912 ft 451 kts 314°
2026-05-06 17:30 49.08440 3.33195 35901 ft 449 kts 314°
2026-05-06 17:30 49.12870 3.26479 35901 ft 449 kts 314°
2026-05-06 17:31 49.17297 3.19748 35902 ft 449 kts 314°
2026-05-06 17:31 49.21684 3.13058 35904 ft 448 kts 314°
2026-05-06 17:32 49.26098 3.06311 35905 ft 448 kts 314°
2026-05-06 17:32 49.30500 2.99565 35906 ft 448 kts 314°
2026-05-06 17:33 49.34897 2.92808 35902 ft 447 kts 314°
2026-05-06 17:33 49.39245 2.86107 35902 ft 447 kts 314°
2026-05-06 17:34 49.43634 2.79326 35903 ft 447 kts 314°
2026-05-06 17:34 49.48009 2.72549 35911 ft 446 kts 314°
2026-05-06 17:35 49.52377 2.65764 35914 ft 446 kts 314°
2026-05-06 17:35 49.56733 2.58980 35918 ft 445 kts 313°
2026-05-06 17:36 49.63003 2.48521 35926 ft 444 kts 309°
2026-05-06 17:36 49.67006 2.41269 35929 ft 443 kts 309°
2026-05-06 17:37 49.71004 2.34019 35926 ft 443 kts 309°
2026-05-06 17:37 49.74990 2.26747 35930 ft 443 kts 309°
2026-05-06 17:38 49.78935 2.19526 35932 ft 443 kts 309°
2026-05-06 17:38 49.82907 2.12234 35929 ft 442 kts 309°
2026-05-06 17:39 49.84891 2.08584 35780 ft 443 kts 309°
2026-05-06 17:39 49.86873 2.04933 35541 ft 442 kts 309°
2026-05-06 17:39 49.88847 2.01292 35292 ft 440 kts 309°
2026-05-06 17:39 49.90814 1.97659 35054 ft 440 kts 309°
2026-05-06 17:40 49.92783 1.94016 34815 ft 441 kts 309°
2026-05-06 17:40 49.94755 1.90363 34576 ft 441 kts 309°
2026-05-06 17:40 49.96694 1.86767 34344 ft 441 kts 309°
2026-05-06 17:40 49.98660 1.83116 34112 ft 440 kts 310°
2026-05-06 17:41 50.00619 1.79470 33865 ft 440 kts 310°
2026-05-06 17:41 50.02583 1.75812 33584 ft 440 kts 310°
2026-05-06 17:41 50.04547 1.72149 33034 ft 444 kts 309°
2026-05-06 17:41 50.06547 1.68466 32208 ft 447 kts 312°
2026-05-06 17:42 50.08777 1.65099 31393 ft 448 kts 319°
2026-05-06 17:42 50.11117 1.61963 30647 ft 448 kts 319°
2026-05-06 17:42 50.13479 1.58763 30142 ft 441 kts 318°
2026-05-06 17:42 50.15751 1.55672 29456 ft 437 kts 318°
2026-05-06 17:43 50.18022 1.52579 29024 ft 428 kts 318°
2026-05-06 17:43 50.20250 1.49542 28453 ft 423 kts 318°
2026-05-06 17:43 50.22446 1.46545 27924 ft 417 kts 317°
2026-05-06 17:43 50.24616 1.43581 27402 ft 411 kts 317°
2026-05-06 17:44 50.26756 1.40655 26866 ft 407 kts 317°
2026-05-06 17:44 50.28870 1.37763 26356 ft 402 kts 317°
2026-05-06 17:44 50.30936 1.34932 25840 ft 398 kts 317°
2026-05-06 17:44 50.33006 1.32093 25334 ft 394 kts 317°
2026-05-06 17:45 50.35056 1.29276 24818 ft 391 kts 317°
2026-05-06 17:45 50.37091 1.26477 24312 ft 387 kts 317°
2026-05-06 17:45 50.39082 1.23737 23806 ft 376 kts 317°
2026-05-06 17:45 50.41026 1.21058 23286 ft 374 kts 317°
2026-05-06 17:46 50.43033 1.18283 22747 ft 393 kts 317°
2026-05-06 17:46 50.45100 1.15424 22240 ft 397 kts 317°
2026-05-06 17:46 50.47158 1.12577 21710 ft 391 kts 317°
2026-05-06 17:46 50.49175 1.09786 21190 ft 381 kts 317°
2026-05-06 17:47 50.51107 1.07102 20686 ft 370 kts 316°
2026-05-06 17:47 50.52869 1.04260 20193 ft 357 kts 311°
2026-05-06 17:47 50.54532 1.01439 19721 ft 348 kts 312°
2026-05-06 17:47 50.56234 0.98573 19229 ft 373 kts 312°
2026-05-06 17:48 50.58040 0.95533 18718 ft 383 kts 312°
2026-05-06 17:48 50.59851 0.92482 18189 ft 380 kts 312°
2026-05-06 17:48 50.61376 0.89909 17720 ft 372 kts 312°
2026-05-06 17:48 50.63113 0.86975 17208 ft 360 kts 312°
2026-05-06 17:49 50.64229 0.85085 16879 ft 351 kts 312°
2026-05-06 17:49 50.65864 0.82313 16390 ft 340 kts 312°
2026-05-06 17:49 50.67442 0.79619 16048 ft 332 kts 310°
2026-05-06 17:49 50.68893 0.76794 15777 ft 332 kts 308°
2026-05-06 17:50 50.70821 0.73012 14797 ft 338 kts 308°
2026-05-06 17:50 50.72314 0.70094 14316 ft 345 kts 309°
2026-05-06 17:50 50.73832 0.67125 13845 ft 347 kts 309°
2026-05-06 17:50 50.74839 0.65150 13728 ft 336 kts 309°
2026-05-06 17:51 50.76265 0.62353 13546 ft 318 kts 309°
2026-05-06 17:51 50.77595 0.59740 13287 ft 302 kts 309°
2026-05-06 17:51 50.78902 0.57168 12835 ft 298 kts 309°
2026-05-06 17:51 50.80195 0.54620 12219 ft 296 kts 309°
2026-05-06 17:52 50.81475 0.52095 11606 ft 293 kts 309°
2026-05-06 17:52 50.82746 0.49586 11022 ft 291 kts 309°
2026-05-06 17:52 50.84002 0.47104 10444 ft 288 kts 309°
2026-05-06 17:52 50.85236 0.44664 10050 ft 280 kts 309°
2026-05-06 17:53 50.86453 0.42256 9633 ft 281 kts 309°
2026-05-06 17:53 50.87661 0.39867 9390 ft 271 kts 309°
2026-05-06 17:53 50.88804 0.37599 9253 ft 256 kts 309°
2026-05-06 17:53 50.89895 0.35434 9023 ft 249 kts 309°
2026-05-06 17:54 50.90957 0.33327 8679 ft 248 kts 309°
2026-05-06 17:54 50.92027 0.31203 8336 ft 246 kts 309°
2026-05-06 17:54 50.93091 0.29089 8052 ft 242 kts 309°
2026-05-06 17:54 50.94113 0.27047 7974 ft 231 kts 307°
2026-05-06 17:55 50.94740 0.24693 7982 ft 242 kts 277°
2026-05-06 17:55 50.94608 0.22017 7973 ft 245 kts 261°
2026-05-06 17:55 50.94299 0.19371 7978 ft 244 kts 261°
2026-05-06 17:55 50.93988 0.16733 7977 ft 243 kts 261°
2026-05-06 17:56 50.93678 0.14089 7971 ft 244 kts 261°
2026-05-06 17:56 50.93365 0.11450 7969 ft 243 kts 261°
2026-05-06 17:56 50.93057 0.08847 7967 ft 244 kts 261°
2026-05-06 17:56 50.92744 0.06214 7966 ft 243 kts 261°
2026-05-06 17:57 50.92432 0.03579 7968 ft 243 kts 261°
2026-05-06 17:57 50.92120 0.00946 7965 ft 243 kts 261°
2026-05-06 17:57 50.91808 -0.01678 7967 ft 243 kts 261°
2026-05-06 17:57 50.91494 -0.04311 7969 ft 243 kts 261°
2026-05-06 17:58 50.91178 -0.06943 7967 ft 243 kts 261°
2026-05-06 17:58 50.90862 -0.09570 7966 ft 243 kts 261°
2026-05-06 17:58 50.90546 -0.12193 7967 ft 243 kts 261°
2026-05-06 17:58 50.90228 -0.14831 7965 ft 243 kts 261°
2026-05-06 17:59 50.89915 -0.17466 7968 ft 243 kts 263°
2026-05-06 17:59 50.90051 -0.20079 7971 ft 240 kts 289°
2026-05-06 17:59 50.90593 -0.22542 7967 ft 239 kts 291°
2026-05-06 17:59 50.91306 -0.24886 7969 ft 237 kts 309°
2026-05-06 18:00 50.92361 -0.26911 7966 ft 239 kts 311°
2026-05-06 18:00 50.93438 -0.28922 7837 ft 240 kts 311°
2026-05-06 18:00 50.94518 -0.30937 7382 ft 241 kts 311°
2026-05-06 18:00 50.95620 -0.32987 6747 ft 247 kts 311°
2026-05-06 18:01 50.96745 -0.35069 6194 ft 248 kts 311°
2026-05-06 18:01 50.97748 -0.37197 5991 ft 233 kts 302°
2026-05-06 18:01 50.98538 -0.39330 5970 ft 220 kts 301°
2026-05-06 18:01 50.99331 -0.41507 5963 ft 233 kts 301°
2026-05-06 18:02 51.00135 -0.43719 5970 ft 229 kts 301°
2026-05-06 18:02 51.00927 -0.45900 5970 ft 226 kts 301°
2026-05-06 18:02 51.01686 -0.47998 5968 ft 213 kts 301°
2026-05-06 18:02 51.02592 -0.49684 5971 ft 198 kts 329°